Weather History for Lethbridge Airport, AB

Change the Weather History Date:

Wednesday, November 14, 2012

  Actual Average Record
Temperature  
Mean Temperature 16 °F -  
Max Temperature 33 °F 35 °F 60 °F (2001)
Min Temperature 0 °F 15 °F 0 °F (1997)
Degree Days  
Heating Degree Days 48    
Moisture  
Dew Point 21 °F    
Average Humidity 63    
Maximum Humidity 86    
Minimum Humidity 46    
Precipitation  
Precipitation 0.00 in 0.02 in - ()
Sea Level Pressure  
Sea Level Pressure 30.00 in    
Wind  
Wind Speed 14 mph ()    
Max Wind Speed 26 mph    
Max Gust Speed 33 mph    
Visibility 12.0 miles    
Events      
Averages and records for this station are not official NWS values.
T = Trace of Precipitation, MM = Missing Value Source: Averaged Metar Reports

Daily Weather History Graph

Daily Weather History Graph

Search for Another Location

Airport:

Trip Planner

Search our weather history database for the weather conditions in past years. The results will help you decide how hot, cold, wet, or windy it might be!

Date:

Astronomy

Nov. 14, 2012 Rise Set
Actual Time 7:42 AM MST 4:48 PM MST
Civil Twilight 7:06 AM MST 5:23 PM MST
Nautical Twilight 6:27 AM MST 6:02 PM MST
Astronomical Twilight 5:50 AM MST 6:40 PM MST
Moon 8:41 AM MST (11/14) 5:34 PM MST (11/14)
Length of Visible Light 10h 17m
Length of Day
9h 06m
New Moon, 1% of the Moon is Illuminated
Nov 14
New Moon
Nov 20
First Quarter
Nov 28
Full
Dec 6
Last Quarter
Dec 13
New

Hourly Weather History & Observations

Time (MST) Temp. Windchill Dew Point Humidity Pressure Visibility Wind Dir Wind Speed Gust Speed Precip Events Conditions
12:00 AM 37.4 °F 28.5 °F 26.6 °F 65% 30.02 in 9.0 mi WSW 15.0 mph 21.9 mph N/A   Overcast
1:00 AM 39.2 °F 29.6 °F 26.6 °F 61% 30.01 in 9.0 mi West 19.6 mph 26.5 mph N/A   Mostly Cloudy
2:00 AM 37.4 °F 28.9 °F 26.6 °F 65% 30.01 in 9.0 mi West 13.8 mph 21.9 mph N/A   Mostly Cloudy
3:00 AM 39.2 °F 31.6 °F 26.6 °F 61% 30.01 in 9.0 mi WSW 12.7 mph 24.2 mph N/A   Mostly Cloudy
4:00 AM 39.2 °F 30.8 °F 26.6 °F 61% 29.99 in 9.0 mi West 15.0 mph 24.2 mph N/A   Overcast
5:00 AM 8 °F - 0 °F 58% 29.56 in - WSW 13.8 mph - -  
5:09 AM 39.2 °F 28.7 °F 26.6 °F 61% 29.97 in 9.0 mi West 23.0 mph - N/A   Overcast
6:00 AM 35.6 °F 25.9 °F 26.6 °F 70% 29.99 in 15.0 mi WSW 16.1 mph - N/A   Overcast
7:00 AM 33.8 °F 24.3 °F 26.6 °F 75% 30.00 in 15.0 mi SW 13.8 mph - N/A   Mostly Cloudy
8:00 AM 35.6 °F 25.9 °F 24.8 °F 65% 30.01 in 40.0 mi SW 16.1 mph - N/A   Mostly Cloudy
9:00 AM 37.4 °F 29.8 °F 26.6 °F 65% 30.01 in 40.0 mi SW 11.5 mph 18.4 mph N/A   Mostly Cloudy
10:00 AM 41.0 °F 31.1 °F 28.4 °F 61% 30.01 in 40.0 mi West 23.0 mph - N/A   Mostly Cloudy
11:00 AM 4 °F - -6 °F 50% 29.59 in - WSW 2.3 mph - -  
11:00 AM 41.0 °F 30.9 °F 28.4 °F 61% 30.03 in 40.0 mi West 24.2 mph 31.1 mph N/A   Scattered Clouds
12:00 PM 42.8 °F 33.1 °F 28.4 °F 57% 30.04 in 40.0 mi West 25.3 mph 33.4 mph N/A   Partly Cloudy
1:00 PM 44.6 °F 35.7 °F 26.6 °F 49% 30.05 in 40.0 mi West 24.2 mph 31.1 mph N/A   Partly Cloudy
2:00 PM 44.6 °F 36.1 °F 26.6 °F 49% 30.06 in 40.0 mi WSW 21.9 mph - N/A   Partly Cloudy
3:00 PM 44.6 °F 36.6 °F 26.6 °F 49% 30.08 in 40.0 mi WSW 19.6 mph - N/A   Partly Cloudy
4:00 PM 44.6 °F 38.8 °F 26.6 °F 49% 30.10 in 40.0 mi West 11.5 mph 19.6 mph N/A   Scattered Clouds
5:00 PM -0 °F - -10 °F 46% 29.62 in - West 26.5 mph - -  
5:00 PM 33.8 °F 27.0 °F 24.8 °F 70% 30.15 in 40.0 mi East 8.1 mph - N/A   Mostly Cloudy
6:00 PM 30.2 °F - 24.8 °F 80% 30.18 in 15.0 mi Calm Calm - N/A   Scattered Clouds
7:00 PM 28.4 °F 21.2 °F 23.0 °F 80% 30.19 in 15.0 mi SW 6.9 mph - N/A   Scattered Clouds
8:00 PM 28.4 °F 19.7 °F 24.8 °F 86% 30.20 in 15.0 mi SW 9.2 mph - N/A   Clear
9:00 PM 33.8 °F 24.3 °F 23.0 °F 65% 30.18 in 15.0 mi SW 13.8 mph - N/A   Clear
10:00 PM 32.0 °F 22.5 °F 23.0 °F 69% 30.18 in 15.0 mi WSW 12.7 mph - N/A   Clear
11:00 PM -0 °F - -9 °F 50% 29.67 in - WSW 25.3 mph - -  
11:00 PM 30.2 °F 20.8 °F 23.0 °F 75% 30.19 in 9.0 mi SW 11.5 mph - N/A   Clear